Regional Weather Roundup
Issued by NWS Raleigh/Durham, NC

Home | Current Version | Previous Version | Text Only | Print | Product List | Glossary On
Versions: 1 2 3 4 5 6 7 8 9 10 11 12 13 14 15 16 17 18 19 20 21 22 23 24 25 26 27 28 29 30 31 32 33 34 35 36 37 38 39 40 41 42 43 44 45 46 47 48 49
000
ASUS42 KRAH 262210
RWRRAH
NORTH CAROLINA WEATHER ROUNDUP
NATIONAL WEATHER SERVICE RALEIGH NC
600 PM EDT THU MAY 26 2016

NOTE: "FAIR" INDICATES FEW OR NO CLOUDS BELOW 12,000 FEET WITH NO
SIGNIFICANT WEATHER AND/OR OBSTRUCTIONS TO VISIBILITY.

NCZ001-053-055-056-065-067-262300-
WESTERN NORTH CAROLINA

CITY           SKY/WX    TMP DP  RH WIND       PRES   REMARKS
ASHEVILLE      CLOUDY    73  63  70 S9        30.15F
JEFFERSON      CLOUDY    71  58  63 SE5       30.19F
MORGANTON      CLOUDY    79  65  63 W5        30.15F
HICKORY        CLOUDY    74  68  81 N6        30.10F
RUTHERFORDTON  CLOUDY    73  65  77 NW5       30.12F
MOUNT AIRY     MOSUNNY   78  66  67 CALM      30.14S
BOONE          MOSUNNY   73  56  55 S3        30.20F
$$

NCZ021-022-025-041-071-084-088-262300-
CENTRAL NORTH CAROLINA

CITY           SKY/WX    TMP DP  RH WIND       PRES   REMARKS
CHARLOTTE      MOSUNNY   85  60  42 S10       30.09F
GREENSBORO     MOSUNNY   85  61  44 SW8       30.08F
WINSTON-SALEM  PTSUNNY   85  60  42 SW6       30.09F
RALEIGH-DURHAM MOSUNNY   86  63  45 SW9       30.08F
FORT BRAGG     PTSUNNY   87  59  37 SW9       30.07F
FAYETTEVILLE   MOSUNNY   87  60  40 S10       30.08F
BURLINGTON     SUNNY     85  62  46 SW7       30.07F
LAURINBURG     SUNNY     87  60  40 SW9       30.09F
$$

NCZ011-015-027-028-043-044-047-080-103-262300-
NORTHEASTERN NORTH CAROLINA

CITY           SKY/WX    TMP DP  RH WIND       PRES   REMARKS
ROCKY MT-WILSO MOSUNNY   87  60  40 S8        30.07F
GREENVILLE     SUNNY     88  63  42 S7        30.10F
WASHINGTON     MOSUNNY   86  62  43 S10       30.09F
ELIZABETH CITY SUNNY     85  63  47 SE10      30.09F
MANTEO         NOT AVBL
CAPE HATTERAS  SUNNY     76  67  73 SW9       30.16F
$$

NCZ078-087-090-091-093-098-101-262300-
SOUTHEASTERN NORTH CAROLINA

CITY           SKY/WX    TMP DP  RH WIND       PRES   REMARKS
LUMBERTON      SUNNY     87  64  46 S8        30.08F
GOLDSBORO      SUNNY     88  58  35 VRB7      30.07F
KINSTON        MOSUNNY   88  61  40 S8        30.09F
KENANSVILLE    SUNNY     85  59  40 CALM      30.10F
NEW BERN       MOSUNNY   81  64  56 S14       30.13F
CHERRY POINT   SUNNY     79  63  57 S14       30.14F
BEAUFORT       SUNNY     77  69  76 S12       30.15F
JACKSONVILLE   SUNNY     80  62  54 S13       30.12F
WILMINGTON     SUNNY     81  63  54 S13       30.13F
$$




USA.gov is the U.S. government's official web portal to all federal, state and local government web resources and services.